EHI
0 0 0 0 0 0 0 0 0 0 0 0 0 0 0 0 0 1 2 4 6 6 6 6 6 4 1 0 0 0 0 0 0 0 0 0 0 0 0 0 0 0 0 0
0 0 0 0 0 0 0 0 0 0 0 0 0 0 0 0 1 1 1 3 5 6 6 6 4 2 0 0 0 0 0 0 0 0 0 0 0 0 0 0 0 0 0 0
0 0 0 0 0 0 0 0 0 0 0 0 0 0 0 0 1 1 1 2 3 5 5 4 2 0 0 0 0 0 0 0 0 0 0 0 0 0 0 0 0 0 0 0
0 0 0 0 0 0 0 0 0 0 0 0 0 0 0 0 1 1 0 0 1 2 3 2 0 0 0 0 0 0 0 0 0 0 0 0 0 0 0 0 0 0 0 0
0 0 0 0 0 0 0 0 0 0 0 0 0 0 0 0 0 0 0 0 0 1 1 0 0 0 0 0 0 0 0 0 0 0 0 0 0 0 0 0 0 0 0 0
0 0 0 0 0 0 0 0 0 0 0 0 0 0 0 0 0 0 0 0 0 0 0 0 0 0 0 0 0 0 0 0 0 0 0 0 0 0 0 0 0 0 0 0
0 0 0 0 0 0 0 0 0 0 0 0 0 0 0 0 0 0 0 0 0 0 0 0 0 0 0 0 0 0 0 0 0 0 0 0 0 0 0 0 0 0 0 0
0 0 0 0 0 0 0 0 0 0 0 0 0 0 0 0 0 0 0 0 0 0 0 0 0 0 0 0 0 0 0 0 0 0 0 0 0 0 0 0 0 0 0 0
0 0 0 0 0 0 0 0 0 0 0 0 0 0 0 0 0 0 0 0 0 0 0 0 0 0 0 0 0 0 0 0 0 0 0 0 0 0 0 0 0 0 0 0
0 0 0 0 0 0 0 0 0 0 0 0 0 0 0 0 0 0 0 0 0 0 0 0 0 0 0 0 0 0 0 0 0 0 0 0 0 0 0 0 0 0 0 0
0 0 0 0 0 0 0 0 0 0 0 0 0 0 0 0 0 0 0 0 0 0 0 0 0 0 0 0 0 0 0 0 0 0 0 0 0 0 0 0 0 0 0 0
0 0 0 0 0 0 0 0 0 0 0 0 0 0 0 0 0 0 0 0 0 0 0 0 0 0 0 0 0 0 0 0 0 0 0 0 0 0 0 0 0 0 0 0
0 0 0 0 0 0 0 0 0 0 0 0 0 0 0 0 0 0 0 0 0 0 0 0 0 0 0 0 0 0 0 0 0 0 0 0 0 0 0 0 0 0 0 0
0 0 0 0 0 0 0 0 0 0 0 0 0 0 0 0 0 0 0 0 0 0 0 0 0 0 0 0 0 0 0 0 0 0 0 0 0 0 0 0 0 0 0 0
0 0 0 0 0 0 0 0 0 0 0 0 0 0 0 0 0 0 0 0 0 0 0 0 0 0 0 0 0 0 0 0 0 0 0 0 0 0 0 0 0 0 0 0
0 0 0 0 0 0 0 0 0 0 0 0 0 0 0 0 0 0 0 0 0 0 0 0 0 0 0 0 0 0 0 0 0 0 0 0 0 0 0 0 0 0 0 0
0 0 0 0 0 0 0 0 0 0 0 0 0 0 0 0 0 0 0 0 0 0 0 0 0 0 0 0 0 0 0 0 0 0 0 0 0 0 0 0 0 0 0 0
0 0 0 0 0 0 0 0 0 0 0 0 0 0 0 0 0 0 0 0 0 0 0 0 0 0 0 0 0 0 0 0 0 0 0 0 0 0 0 0 0 0 0 0
0 0 0 0 0 0 0 0 0 0 0 0 0 0 0 0 0 0 0 0 0 0 0 0 0 0 0 0 0 0 0 0 0 0 0 0 0 0 0 0 0 0 0 0
0 0 0 0 0 0 0 0 0 0 0 0 0 0 0 0 0 0 0 0 0 0 0 0 0 0 0 0 0 0 0 0 0 0 0 0 0 0 0 0 0 0 0 0
0 0 0 0 0 0 0 0 0 0 0 0 0 0 0 0 0 0 0 0 0 0 0 0 0 0 0 0 0 0 0 0 0 0 0 0 0 0 0 0 0 0 0 0
0 0 0 0 0 0 0 0 0 0 0 0 0 0 0 0 0 0 0 0 0 0 0 0 0 0 0 0 0 0 0 0 0 0 0 0 0 0 0 0 0 0 0 0
0 0 0 0 0 0 0 0 0 0 0 0 0 0 0 0 0 0 0 0 0 0 0 0 0 0 0 0 0 0 0 0 0 0 0 0 0 0 0 0 0 0 0 0
0 0 0 0 0 0 0 0 0 0 0 0 0 0 0 0 0 0 0 0 0 0 0 0 0 0 0 0 0 0 0 0 0 0 0 0 0 0 0 0 0 0 0 0
0 0 0 0 0 0 0 0 0 0 0 0 0 0 0 0 0 0 0 0 0 0 0 0 0 0 0 0 0 0 0 0 0 0 0 0 0 0 0 0 0 0 0 0
0 0 0 0 0 0 0 0 0 0 0 0 0 0 0 0 0 0 0 0 0 0 0 0 0 0 0 0 0 0 0 0 0 0 0 0 0 0 0 0 0 0 0 0
0 0 0 0 0 0 0 0 0 0 0 0 0 0 0 0 0 0 0 0 0 0 0 0 0 0 0 0 0 0 0 0 0 0 0 0 0 0 0 0 0 0 0 0
Wind_Speed
3 3 2 2 2 4 4 6 6 6 6 6 7 7 7 6 7 7 7 7 8 7 6 6 5 5 4 4 3 3 3 2 1 0 1 1 2 2 2 2 3 3 3 3
1 2 1 1 1 1 2 3 3 2 4 2 4 5 6 7 8 8 7 7 7 7 7 7 6 6 5 4 3 3 3 2 1 1 1 1 1 2 2 3 3 3 3 3
2 3 1 2 3 2 2 1 3 5 4 4 5 7 7 7 7 7 6 6 7 7 7 7 6 6 6 5 4 3 2 2 1 1 0 0 1 1 2 2 2 3 3 3
1 1 3 5 2 2 3 1 1 1 3 5 5 4 3 4 6 6 6 6 6 6 6 5 5 5 5 4 4 3 2 2 1 1 0 0 1 1 1 1 2 2 3 3
3 2 3 3 1 2 3 1 1 3 4 4 6 5 1 2 4 5 6 5 5 5 5 5 6 6 5 4 4 3 2 2 1 1 1 0 0 1 1 1 2 2 2 3
3 3 4 5 1 2 3 2 2 5 7 7 6 3 3 3 4 5 5 5 5 5 5 5 5 6 6 4 3 3 3 2 2 1 2 2 1 1 1 1 2 2 3 3
3 3 6 4 1 2 2 5 2 5 7 7 5 4 3 5 5 5 5 5 6 6 5 5 5 6 5 4 4 3 2 2 1 1 1 2 1 0 1 1 2 2 3 4
4 2 6 2 3 4 5 1 4 5 5 5 4 4 5 6 6 7 6 5 5 5 4 3 5 6 5 4 3 2 2 2 1 1 1 1 1 0 1 1 1 3 3 4
6 6 4 2 2 1 3 3 3 5 4 6 5 4 5 6 6 6 6 5 5 5 4 3 3 5 5 4 3 3 3 2 1 0 0 0 1 1 1 1 1 2 2 3
1 2 1 1 0 1 2 3 3 5 6 6 5 6 6 6 5 5 5 5 5 5 5 3 3 3 4 3 3 4 3 2 1 1 0 1 1 1 1 2 2 2 3 3
1 2 1 1 1 3 4 5 6 4 4 6 8 7 7 6 6 5 5 4 5 5 5 4 3 3 3 3 4 3 2 1 1 1 1 1 2 2 3 4 4 4 4 3
6 6 5 3 3 4 5 5 6 6 5 5 6 8 7 6 5 5 5 4 5 4 4 4 3 3 3 3 4 4 2 1 1 1 1 1 2 3 4 5 7 9 9 7
3 3 3 3 3 3 5 5 5 6 7 6 5 6 7 6 5 5 5 5 5 5 4 4 3 3 3 3 4 4 3 3 2 1 2 2 2 2 4 5 4 6 8 8
4 5 3 2 3 4 5 6 6 6 6 6 6 6 6 6 6 6 6 5 5 5 4 4 4 3 3 3 4 4 3 3 3 2 2 2 3 3 3 4 5 5 5 7
3 4 5 4 5 5 6 7 7 6 5 5 5 6 6 6 6 5 5 4 4 4 4 4 4 4 3 3 4 4 3 3 3 3 3 3 3 4 4 5 5 5 5 6
4 5 7 8 7 7 6 6 6 6 5 5 5 5 6 6 5 4 4 5 5 5 5 5 5 5 4 4 4 3 3 5 4 3 3 3 4 4 4 4 5 5 6 6
8 6 6 7 7 7 6 6 7 7 6 6 6 6 6 5 4 4 4 4 5 5 5 5 6 5 4 5 5 4 4 4 5 4 4 4 4 4 5 5 5 6 6 6
8 8 9 10 9 8 7 6 6 7 7 6 6 6 6 6 6 5 5 4 3 3 4 6 6 5 5 5 5 4 4 4 4 4 4 4 5 5 5 5 6 7 7 6
6 7 8 8 8 7 7 6 6 6 6 7 7 7 6 6 6 5 4 4 4 5 6 6 7 6 6 6 6 4 4 5 4 4 4 5 5 5 5 6 6 7 7 6
7 7 7 7 7 6 6 6 6 6 6 7 6 6 5 5 5 5 5 5 6 6 5 5 5 5 6 6 6 4 5 5 5 5 5 5 5 6 6 6 6 6 6 6
8 8 8 7 7 7 7 7 7 7 6 7 7 7 7 6 5 5 4 5 6 6 6 6 5 5 5 5 6 5 5 5 6 6 5 5 6 6 6 6 6 6 6 6
7 7 8 7 7 6 5 6 7 7 7 6 7 6 5 5 5 5 6 6 6 5 4 4 5 6 7 6 4 5 5 6 6 5 5 5 5 6 6 6 6 6 6 6
6 7 7 8 8 6 5 5 6 7 7 7 7 7 7 6 5 5 5 5 4 6 5 5 6 8 8 5 4 5 5 6 6 5 5 5 5 5 6 7 6 6 6 6
6 7 6 6 6 6 5 5 5 5 6 6 6 7 6 5 4 5 5 5 5 6 5 6 8 9 7 4 4 5 5 5 5 5 5 5 5 5 6 6 6 6 6 7
7 6 6 7 6 5 6 5 4 4 4 3 4 5 5 5 5 5 4 5 6 6 5 6 8 8 5 4 5 5 5 6 6 5 5 5 6 6 6 6 6 6 6 7
6 6 6 6 6 5 4 4 4 4 4 3 3 3 4 4 4 4 3 4 5 5 5 4 4 5 4 5 5 6 5 5 6 6 6 6 7 7 6 7 8 7 7 7
5 4 4 3 3 4 4 5 5 5 5 5 4 3 4 4 3 4 4 4 3 4 4 4 4 4 4 5 5 5 5 5 5 5 5 6 6 6 6 8 7 6 6 6
Wind_Direction
236 248 218 220 210 183 180 186 192 227 215 223 200 183 173 163 154 155 162 166 168 168 169 165 162 160 158 156 154 145 133 133 144 102 59 48 32 15 11 15 13 6 5 357
314 297 237 295 296 214 209 189 200 212 247 220 147 136 150 162 166 173 176 175 173 174 173 172 169 166 160 159 160 151 150 163 165 119 66 37 11 8 17 14 11 12 3 354
245 296 13 291 264 227 197 191 176 207 226 147 145 163 169 172 172 174 170 168 173 180 179 178 173 165 165 164 157 154 157 160 165 151 127 329 4 25 14 1 4 359 349 350
142 66 235 250 259 172 142 170 192 174 151 158 160 148 144 154 162 165 166 169 175 177 172 164 154 151 153 150 152 155 158 172 178 167 170 18 36 20 353 345 348 343 335 337
126 169 278 286 248 159 148 267 205 153 136 120 113 88 63 156 156 164 165 162 162 157 148 146 150 152 145 146 148 154 173 189 198 186 182 164 358 336 333 340 337 331 324 334
129 158 235 248 247 171 112 286 202 150 150 146 131 145 227 174 144 139 138 139 138 135 130 140 150 143 141 149 157 180 197 204 198 182 182 199 231 288 316 321 314 321 329 332
149 199 259 258 237 123 159 246 176 155 159 155 167 186 173 141 134 136 133 134 135 136 141 155 150 141 146 156 184 201 191 180 170 171 185 197 209 258 303 332 337 335 328 324
147 185 254 264 134 173 209 182 140 150 155 148 137 121 127 133 133 133 129 128 134 138 145 150 147 145 152 177 190 164 152 156 163 174 199 165 167 300 329 350 337 329 327 323
180 207 245 261 204 204 150 145 157 152 149 139 133 138 136 136 137 139 137 137 136 140 141 142 154 157 167 188 166 146 140 152 161 125 33 165 189 249 307 307 295 300 305 306
176 262 274 298 66 85 128 144 147 143 145 144 144 145 138 138 140 140 140 140 136 136 142 152 166 172 181 178 157 149 156 170 169 156 316 320 267 232 239 255 265 275 281 286
192 239 66 10 123 119 97 105 114 115 133 143 138 140 144 146 149 151 145 138 142 149 156 169 172 177 179 166 151 151 159 173 185 200 232 282 286 251 240 240 228 235 256 256
209 206 177 199 172 135 121 128 135 125 118 124 137 143 144 149 150 147 146 141 144 151 158 170 171 178 184 169 159 157 167 194 216 237 258 270 292 306 270 248 259 246 241 241
188 154 145 146 137 131 131 135 131 131 136 133 132 139 144 144 144 142 144 148 159 168 170 172 173 187 195 177 167 172 188 206 217 230 247 266 278 288 305 310 291 267 257 254
142 118 117 154 157 136 126 121 113 111 119 129 131 133 137 133 136 148 163 172 169 166 171 176 181 207 210 181 176 190 201 214 218 230 240 253 260 264 266 282 301 304 293 275
168 149 157 144 123 119 119 118 116 119 123 122 131 141 145 147 156 170 173 164 154 162 178 182 196 225 217 184 186 200 205 217 222 232 241 251 260 267 268 268 272 282 294 295
133 115 128 134 139 138 134 135 141 152 154 150 154 161 163 161 162 164 164 159 159 182 195 195 213 227 212 194 199 210 221 232 232 236 250 259 262 265 269 270 274 278 282 283
140 149 153 156 159 161 165 167 167 166 164 166 172 166 154 148 151 169 184 184 186 199 202 203 219 225 209 200 203 217 224 237 239 243 250 254 261 267 268 268 272 276 277 272
170 172 171 168 169 168 170 170 168 166 170 174 161 153 158 166 180 194 198 185 184 218 228 220 221 220 217 213 211 216 220 230 234 241 250 256 261 265 269 270 273 276 283 285
165 167 168 170 170 168 169 172 174 172 167 159 160 170 180 187 192 194 183 177 195 227 241 228 217 216 224 227 217 216 223 233 243 249 254 263 269 271 271 272 274 276 279 282
167 168 168 167 165 167 173 171 165 165 167 164 165 171 184 199 196 189 184 205 220 222 223 219 211 216 225 230 219 219 226 234 243 252 258 263 269 275 276 276 277 278 279 278
164 165 166 170 172 177 178 170 167 174 175 170 174 186 197 205 195 183 188 230 246 226 221 224 220 224 226 224 218 222 230 237 242 248 256 263 269 273 276 277 278 277 277 278
165 167 171 171 171 179 181 172 172 174 172 178 185 187 191 203 202 200 212 225 240 226 216 221 223 226 226 222 219 224 233 239 245 248 253 259 264 273 279 281 281 281 279 276
164 166 168 170 174 176 169 171 175 174 179 187 190 193 199 205 196 197 233 236 224 220 216 224 227 230 230 224 224 229 237 243 247 250 253 257 261 267 275 280 280 281 281 280
162 165 167 160 147 149 169 187 182 183 188 194 199 198 195 199 216 221 225 235 227 221 223 232 235 236 230 223 226 232 238 243 247 251 253 256 260 266 270 274 280 283 282 282
159 156 150 148 158 179 187 178 169 180 185 200 212 208 201 198 210 224 216 221 226 225 234 237 234 233 224 223 228 233 237 240 245 250 256 262 268 272 272 273 274 279 283 284
155 159 167 177 180 177 168 165 175 186 185 202 222 215 209 207 212 218 218 222 223 224 229 234 227 223 221 224 230 236 241 248 252 254 257 261 268 272 276 279 281 280 281 282
141 144 147 155 173 170 167 171 180 192 193 198 214 218 206 201 201 209 214 218 220 224 229 230 224 220 223 227 234 238 242 247 251 254 257 260 265 269 273 275 276 278 280 282